FW1757 Weather Reports


time (UTC)temp
C
wind
direction
speed
KPH
gust
KPH
rain 1hr
cm
rain 24hr
cm
rain mn
cm
humidity
%
barometer
mb
20260509075532 12 256 0.0 0.0 0.00 0.00 0.00 68 1019.9
20260509075034 13 273 0.0 0.0 0.00 0.00 0.00 68 1019.9
20260509074532 13 288 0.0 0.0 0.00 0.00 0.00 68 1019.9
20260509074030 13 287 0.0 0.0 0.00 0.00 0.00 68 1020.0
20260509073534 13 283 0.0 0.0 0.00 0.00 0.00 68 1020.0
20260509073029 13 282 0.0 0.0 0.00 0.00 0.00 67 1020.0
20260509072529 13 272 0.0 0.0 0.00 0.00 0.00 66 1019.9
20260509072030 13 272 0.0 0.0 0.00 0.00 0.00 66 1019.9
20260509071526 13 272 0.0 0.0 0.00 0.00 0.00 66 1019.9
20260509071025 13 272 0.0 0.0 0.00 0.00 0.00 66 1019.8
20260509070528 14 272 0.0 0.0 0.00 0.00 0.00 65 1019.9
20260509070023 14 272 0.0 0.0 0.00 0.00 0.00 65 1019.7
20260509065522 14 272 0.0 0.0 0.00 0.00 0.00 64 1019.6
20260509065022 14 292 0.0 0.0 0.00 0.00 0.00 64 1019.6
20260509064522 14 236 0.0 0.0 0.00 0.00 0.00 64 1019.7
20260509064022 14 223 0.0 0.0 0.00 0.00 0.00 64 1019.6
20260509063524 14 211 0.0 0.0 0.00 0.00 0.00 64 1019.7
20260509063021 14 250 0.0 0.0 0.00 0.00 0.00 64 1019.5
20260509062521 14 237 0.0 0.0 0.00 0.00 0.00 64 1019.5
20260509062022 14 219 0.0 0.0 0.00 0.00 0.00 64 1019.5
20260509061525 14 254 0.0 0.0 0.00 0.00 0.00 64 1019.5
20260509061021 14 279 0.0 0.0 0.00 0.00 0.00 64 1019.3
20260509060521 14 232 0.0 0.0 0.00 0.00 0.00 64 1019.3
20260509060021 14 232 0.0 0.0 0.00 0.00 0.00 64 1019.3
20260509055521 14 256 0.0 0.0 0.00 0.00 0.00 63 1019.4
20260509055020 14 302 0.0 0.0 0.00 0.00 0.00 63 1019.4
20260509054520 14 288 0.0 0.0 0.00 0.00 0.00 63 1019.5
20260509054020 14 281 0.0 0.0 0.00 0.00 0.00 62 1019.5
20260509053521 14 277 0.0 0.0 0.00 0.00 0.00 62 1019.6
20260509053020 14 249 0.0 0.0 0.00 0.00 0.00 62 1019.6
20260509052519 15 263 0.0 0.0 0.00 0.00 0.00 61 1019.7
20260509052018 15 318 0.0 0.0 0.00 0.00 0.00 61 1019.6
20260509051520 15 252 0.0 0.0 0.00 0.00 0.00 61 1019.6
20260509051018 15 257 0.0 0.0 0.00 0.00 0.00 61 1019.7
20260509050522 15 232 0.0 0.0 0.00 0.00 0.00 61 1019.6
20260509050018 15 275 0.0 0.0 0.00 0.00 0.00 60 1019.7
20260509045522 15 255 0.0 0.0 0.00 0.00 0.00 60 1019.6
20260509045016 15 296 0.0 0.0 0.00 0.00 0.00 60 1019.5
20260509044517 15 274 0.0 0.0 0.00 0.00 0.00 59 1019.4
20260509044016 15 249 0.0 0.0 0.00 0.00 0.00 59 1019.5
20260509043519 15 233 0.0 0.0 0.00 0.00 0.00 59 1019.5
20260509043015 15 276 0.0 0.0 0.00 0.00 0.00 58 1019.4
20260509042515 15 247 0.0 0.0 0.00 0.00 0.00 58 1019.5
20260509042015 15 250 0.0 0.0 0.00 0.00 0.00 58 1019.5
20260509041514 15 255 0.0 0.0 0.00 0.00 0.00 58 1019.5
20260509041014 15 261 0.0 0.0 0.00 0.00 0.00 58 1019.4
20260509040513 16 253 0.0 0.0 0.00 0.00 0.00 57 1019.4
20260509040012 16 252 0.0 0.0 0.00 0.00 0.00 57 1019.3
20260509035515 16 242 0.0 0.0 0.00 0.00 0.00 57 1019.1
20260509035015 16 279 0.0 0.0 0.00 0.00 0.00 57 1019.0
20260509034533 16 225 0.0 0.0 0.00 0.00 0.00 56 1019.0
20260509034010 16 246 0.0 0.0 0.00 0.00 0.00 56 1018.9
20260509033510 16 285 0.0 0.0 0.00 0.00 0.00 56 1018.9
20260509033011 16 273 0.0 0.0 0.00 0.00 0.00 56 1019.0
20260509032510 16 288 0.0 0.0 0.00 0.00 0.00 55 1018.9
20260509032012 16 211 0.0 0.0 0.00 0.00 0.00 55 1018.8
20260509031510 16 281 0.0 0.0 0.00 0.00 0.00 55 1018.7
20260509031009 16 243 0.0 0.0 0.00 0.00 0.00 54 1018.7
20260509030510 16 269 0.0 0.0 0.00 0.00 0.00 54 1018.7
20260509030008 16 285 0.0 0.0 0.00 0.00 0.00 53 1018.6
20260509025509 17 311 0.0 0.0 0.00 0.00 0.00 53 1018.6
20260509025007 17 280 0.0 0.0 0.00 0.00 0.00 53 1018.5
20260509024506 17 257 0.0 0.0 0.00 0.00 0.00 52 1018.4
20260509024006 17 259 0.0 0.0 0.00 0.00 0.00 52 1018.4
20260509023506 17 281 0.0 0.0 0.00 0.00 0.00 52 1018.3
20260509023005 17 315 0.0 0.0 0.00 0.00 0.00 52 1018.2
20260509022505 17 284 0.0 0.0 0.00 0.00 0.00 51 1018.2
20260509022005 17 288 0.0 0.0 0.00 0.00 0.00 51 1018.2
20260509021505 17 276 0.0 0.0 0.00 0.00 0.00 50 1018.1
20260509021008 17 269 0.0 0.0 0.00 0.00 0.00 50 1018.1
20260509020509 18 273 0.0 0.0 0.00 0.00 0.00 49 1018.1
20260509020004 18 251 0.0 0.0 0.00 0.00 0.00 49 1018.0
20260509015504 18 284 0.0 0.0 0.00 0.00 0.00 48 1017.9
20260509015004 18 298 0.0 0.0 0.00 0.00 0.00 48 1017.9
20260509014503 18 302 0.0 0.0 0.00 0.00 0.00 48 1017.8
20260509014003 18 284 0.0 0.0 0.00 0.00 0.00 47 1017.8
20260509013502 18 271 0.0 0.0 0.00 0.00 0.00 47 1017.8
20260509013003 18 260 0.0 0.0 0.00 0.00 0.00 46 1017.9
20260509012504 19 265 0.0 0.0 0.00 0.00 0.00 46 1017.7
20260509012002 19 250 0.0 0.0 0.00 0.00 0.00 46 1017.8
20260509011502 19 285 0.0 0.0 0.00 0.00 0.00 46 1017.8
20260509011002 19 288 0.0 0.0 0.00 0.00 0.00 45 1017.9
20260509010502 19 275 0.0 0.0 0.00 0.00 0.00 46 1018.0
20260509010002 19 263 0.0 0.0 0.00 0.00 0.00 47 1018.0
20260509005500 19 302 0.0 0.0 0.00 0.00 0.00 45 1018.0
20260509005000 20 263 0.0 0.0 0.00 0.00 0.00 44 1018.0
20260509004500 20 252 0.0 0.0 0.00 0.00 0.00 44 1018.1
20260509004100 20 265 0.0 0.0 0.00 0.00 0.00 44 1017.8
20260509004003 20 276 0.0 0.0 0.00 0.00 0.00 45 1017.9
20260509003604 20 287 0.0 0.0 0.00 0.00 0.00 44 1018.0
20260509003100 20 290 0.0 0.0 0.00 0.00 0.00 44 1017.8
20260509002501 20 246 0.0 0.0 0.00 0.00 0.00 42 1017.8
20260509002100 20 279 0.0 0.0 0.00 0.00 0.00 42 1017.7
20260509001559 20 252 0.0 0.0 0.00 0.00 0.00 41 1017.6
20260509001059 20 296 0.0 0.0 0.00 0.00 0.00 43 1017.6
20260509000558 20 300 0.0 0.0 0.00 0.00 0.00 42 1017.6
20260509000058 20 288 0.0 0.0 0.00 0.00 0.00 41 1017.7
20260508235558 20 298 0.0 0.0 0.00 0.00 0.00 41 1017.6
20260508235059 20 302 0.0 0.0 0.00 0.00 0.00 41 1017.6
20260508234605 19 284 0.0 0.0 0.00 0.00 0.00 41 1017.5
20260508234100 19 276 0.0 0.0 0.00 0.00 0.00 39 1017.6
20260508233559 19 300 0.0 0.0 0.00 0.00 0.00 39 1017.5
20260508233056 19 275 0.0 0.0 0.00 0.00 0.00 38 1017.6
20260508232558 19 309 0.0 0.0 0.00 0.00 0.00 38 1017.7
20260508232058 19 294 0.0 0.0 0.00 0.00 0.00 36 1017.5
20260508231558 20 314 0.0 0.0 0.00 0.00 0.00 36 1017.5
20260508231056 20 311 0.0 0.0 0.00 0.00 0.00 37 1017.4
20260508230559 19 306 0.0 0.0 0.00 0.00 0.00 36 1017.5
20260508230057 19 282 0.0 0.0 0.00 0.00 0.00 37 1017.4
20260508225555 19 311 0.0 0.0 0.00 0.00 0.00 37 1017.5
20260508225056 20 290 0.0 0.0 0.00 0.00 0.00 37 1017.5
20260508224557 19 287 0.0 0.0 0.00 0.00 0.00 39 1017.5
20260508224054 19 309 0.0 0.0 0.00 0.00 0.00 39 1017.5
20260508223553 19 259 0.0 0.0 0.00 0.00 0.00 39 1017.6
20260508223054 20 268 0.0 0.0 0.00 0.00 0.00 38 1017.6
20260508222553 20 278 0.0 0.0 0.00 0.00 0.00 38 1017.7
20260508222051 19 261 0.0 0.0 0.00 0.00 0.00 41 1017.6
20260508221552 19 288 0.0 0.0 0.00 0.00 0.00 40 1017.6
20260508221051 19 277 0.0 0.0 0.00 0.00 0.00 41 1017.8
20260508220550 19 289 0.0 0.0 0.00 0.00 0.00 41 1017.6
20260508220049 18 309 0.0 0.0 0.00 0.00 0.00 42 1017.8
20260508215547 18 301 0.0 0.0 0.00 0.00 0.00 41 1017.7
20260508215047 18 311 0.0 0.0 0.00 0.00 0.00 43 1017.8
20260508214559 18 294 0.0 0.0 0.00 0.00 0.00 44 1017.7
20260508214044 18 300 0.0 0.0 0.00 0.00 0.00 43 1017.9
20260508213544 18 287 0.0 0.0 0.00 0.00 0.00 43 1018.0
20260508213044 18 300 0.0 0.0 0.00 0.00 0.00 42 1018.1
20260508212544 18 262 0.0 0.0 0.00 0.00 0.00 43 1018.2
20260508212044 18 285 0.0 0.0 0.00 0.00 0.00 42 1018.2
20260508211543 18 315 0.0 0.0 0.00 0.00 0.00 42 1018.2
20260508211043 18 317 0.0 0.0 0.00 0.00 0.00 42 1018.2
20260508210543 18 294 0.0 0.0 0.00 0.00 0.00 42 1017.9
20260508210046 18 277 0.0 0.0 0.00 0.00 0.00 43 1018.0
20260508205541 18 301 0.0 0.0 0.00 0.00 0.00 43 1017.9
20260508205043 18 308 0.0 0.0 0.00 0.00 0.00 43 1018.0
20260508204542 18 344 0.0 0.0 0.00 0.00 0.00 46 1018.1
20260508204038 17 313 0.0 0.0 0.00 0.00 0.00 44 1017.8
20260508203538 17 279 0.0 0.0 0.00 0.00 0.00 43 1017.8
20260508203040 17 271 0.0 0.0 0.00 0.00 0.00 45 1017.8
20260508202537 17 199 0.0 0.0 0.00 0.00 0.00 43 1017.9
20260508202036 17 288 0.0 0.0 0.00 0.00 0.00 45 1017.8
20260508201536 17 275 0.0 0.0 0.00 0.00 0.00 44 1017.8
20260508201038 17 263 0.0 0.0 0.00 0.00 0.00 47 1017.9
20260508200535 17 289 0.0 0.0 0.00 0.00 0.00 46 1017.7
20260508200041 17 292 0.0 0.0 0.00 0.00 0.00 46 1017.7
20260508195533 17 286 0.0 0.0 0.00 0.00 0.00 48 1017.6
20260508195032 17 294 0.0 0.0 0.00 0.00 0.00 48 1017.6
20260508194533 16 265 0.0 0.0 0.00 0.00 0.00 49 1017.6
20260508194030 16 250 0.0 0.0 0.00 0.00 0.00 47 1017.6
20260508193530 16 236 0.0 0.0 0.00 0.00 0.00 50 1017.5
20260508193037 16 293 0.0 0.0 0.00 0.00 0.00 51 1017.6
20260508192528 16 211 0.0 0.0 0.00 0.00 0.00 50 1017.6
20260508192029 16 301 0.0 0.0 0.00 0.00 0.00 53 1017.7
20260508191527 15 259 0.0 0.0 0.00 0.00 0.00 51 1017.7
20260508191025 15 277 0.0 0.0 0.00 0.00 0.00 53 1017.7
20260508190527 15 211 0.0 0.0 0.00 0.00 0.00 53 1017.8
20260508190039 15 288 0.0 0.0 0.00 0.00 0.00 53 1017.8
20260508185524 15 277 0.0 0.0 0.00 0.00 0.00 54 1017.7
20260508185021 15 311 0.0 0.0 0.00 0.00 0.00 53 1017.6
20260508184529 15 244 0.0 0.0 0.00 0.00 0.00 53 1017.6
20260508184020 14 236 0.0 0.0 0.00 0.00 0.00 55 1017.6
20260508183516 13 274 0.0 0.0 0.00 0.00 0.00 57 1017.6
20260508183028 13 261 0.0 0.0 0.00 0.00 0.00 57 1017.6
20260508182516 13 270 0.0 0.0 0.00 0.00 0.00 58 1017.5
20260508182014 12 290 0.0 0.0 0.00 0.00 0.00 58 1017.5
20260508181518 12 239 0.0 0.0 0.00 0.00 0.00 59 1017.5
20260508181014 12 246 0.0 0.0 0.00 0.00 0.00 59 1017.4
20260508180514 12 301 0.0 0.0 0.00 0.00 0.00 58 1017.4
20260508180014 12 261 0.0 0.0 0.00 0.00 0.00 58 1017.6
20260508175514 12 249 0.0 0.0 0.00 0.00 0.00 59 1017.5
20260508175014 12 294 0.0 0.0 0.00 0.00 0.00 58 1017.4
20260508174513 12 242 0.0 0.0 0.00 0.00 0.00 59 1017.6
20260508174012 12 279 0.0 0.0 0.00 0.00 0.00 58 1017.3
20260508173511 12 288 0.0 0.0 0.00 0.00 0.00 61 1017.4
20260508173013 12 275 0.0 0.0 0.00 0.00 0.00 61 1017.1
20260508172511 12 344 0.0 0.0 0.00 0.00 0.00 61 1017.1
20260508172011 13 290 0.0 0.0 0.00 0.00 0.00 61 1017.2
20260508171510 13 294 0.0 0.0 0.00 0.00 0.00 61 1017.1
20260508171011 13 297 0.0 0.0 0.00 0.00 0.00 60 1017.2
20260508170510 13 315 0.0 0.0 0.00 0.00 0.00 61 1017.0
20260508170011 13 324 0.0 0.0 0.00 0.00 0.00 58 1016.9
20260508165510 13 275 0.0 0.0 0.00 0.00 0.00 59 1017.0
20260508165012 13 305 0.0 0.0 0.00 0.00 0.00 58 1016.8
20260508164520 13 275 0.0 0.0 0.00 0.00 0.00 59 1016.8
20260508164009 13 275 0.0 0.0 0.00 0.00 0.00 60 1016.8
20260508163508 13 295 0.0 0.0 0.00 0.00 0.00 61 1016.8
20260508163014 13 278 0.0 0.0 0.00 0.00 0.00 61 1017.0
20260508162508 13 285 0.0 0.0 0.00 0.00 0.00 61 1017.0
20260508162008 13 300 0.0 0.0 0.00 0.00 0.00 62 1016.9
20260508161510 13 258 0.0 0.0 0.00 0.00 0.00 63 1017.0
20260508161008 13 321 0.0 0.0 0.00 0.00 0.00 63 1017.0
20260508160509 13 296 0.0 0.0 0.00 0.00 0.00 63 1017.1
20260508160007 13 311 0.0 0.0 0.00 0.00 0.00 64 1016.9
20260508155509 13 307 0.0 0.0 0.00 0.00 0.00 65 1017.1
20260508155008 13 300 0.0 0.0 0.00 0.00 0.00 65 1017.0
20260508154506 13 286 0.0 0.0 0.00 0.00 0.00 65 1016.9
20260508154005 13 325 0.0 0.0 0.00 0.00 0.00 66 1017.0
20260508153505 13 311 0.0 0.0 0.00 0.00 0.00 65 1017.0
20260508153007 13 236 0.0 0.0 0.00 0.00 0.00 66 1016.8
20260508152507 13 277 0.0 0.0 0.00 0.00 0.00 66 1016.8
20260508152006 13 249 0.0 0.0 0.00 0.00 0.00 66 1016.7
20260508151501 13 283 0.0 0.0 0.00 0.00 0.00 66 1016.7
20260508151100 13 273 0.0 0.0 0.00 0.00 0.00 65 1016.5
20260508150559 13 284 0.0 0.0 0.00 0.00 0.00 65 1016.4
20260508150059 12 288 0.0 0.0 0.00 0.00 0.00 64 1016.3
20260508145558 12 296 0.0 0.0 0.00 0.00 0.00 63 1016.2
20260508145058 12 289 0.0 0.0 0.00 0.00 0.00 62 1016.2
20260508144607 12 260 0.0 0.0 0.00 0.00 0.00 61 1016.2
20260508144059 12 274 0.0 0.0 0.00 0.00 0.00 60 1016.0
20260508143557 12 307 0.0 0.0 0.00 0.00 0.00 60 1016.0
20260508143059 12 280 0.0 0.0 0.00 0.00 0.00 61 1016.0
20260508142554 12 288 0.0 0.0 0.00 0.00 0.00 61 1015.7
20260508142055 12 271 0.0 0.0 0.00 0.00 0.00 61 1015.8
20260508141605 12 285 0.0 0.0 0.00 0.00 0.00 61 1015.7
20260508141053 12 294 0.0 0.0 0.00 0.00 0.00 61 1015.7
20260508140553 12 286 0.0 0.0 0.00 0.00 0.00 63 1015.6
20260508140054 12 285 0.0 0.0 0.00 0.00 0.00 65 1015.5
20260508135553 12 302 0.0 0.0 0.00 0.00 0.00 66 1015.5
20260508135052 12 311 0.0 0.0 0.00 0.00 0.00 66 1015.4
20260508134552 12 278 0.0 0.0 0.00 0.00 0.00 67 1015.5
20260508134051 12 265 0.0 0.0 0.00 0.00 0.00 68 1015.3
20260508133550 12 292 0.0 0.0 0.00 0.00 0.00 68 1015.3
20260508133052 11 287 0.0 0.0 0.00 0.00 0.00 68 1015.2
20260508132549 11 254 0.0 0.0 0.00 0.00 0.00 68 1015.1
20260508132049 11 253 0.0 0.0 0.00 0.00 0.00 68 1015.1
20260508131600 11 290 0.0 0.0 0.00 0.00 0.00 68 1015.0
20260508131049 11 281 0.0 0.0 0.00 0.00 0.00 68 1015.0
20260508130552 11 298 0.0 0.0 0.00 0.00 0.00 68 1015.0
20260508130048 11 245 0.0 0.0 0.00 0.00 0.00 68 1015.0
20260508125550 11 236 0.0 0.0 0.00 0.00 0.00 68 1014.9
20260508125047 11 243 0.0 0.0 0.00 0.00 0.00 68 1014.9
20260508124548 11 241 0.0 0.0 0.00 0.00 0.00 68 1014.9
20260508124047 11 289 0.0 0.0 0.00 0.00 0.00 68 1014.9
20260508123546 11 266 0.0 0.0 0.00 0.00 0.00 68 1015.0
20260508123100 11 245 0.0 0.0 0.00 0.00 0.00 68 1014.9
20260508122549 11 283 0.0 0.0 0.00 0.00 0.00 67 1014.9
20260508122047 11 254 0.0 0.0 0.00 0.00 0.00 67 1014.9
20260508121548 11 279 0.0 0.0 0.00 0.00 0.00 67 1014.9
20260508121046 11 279 0.0 0.0 0.00 0.00 0.00 67 1014.9
20260508120545 11 263 0.0 0.0 0.00 0.00 0.00 66 1014.9
20260508120104 11 242 0.0 0.0 0.00 0.00 0.00 66 1015.0
20260508115544 11 298 0.0 0.0 0.00 0.00 0.00 66 1014.8
20260508115044 11 232 0.0 0.0 0.00 0.00 0.00 65 1014.8
20260508114555 11 225 0.0 0.0 0.00 0.00 0.00 65 1014.9
20260508114043 11 203 0.0 0.0 0.00 0.00 0.00 65 1015.0
20260508113543 11 206 0.0 0.0 0.00 0.00 0.00 64 1014.9
20260508113043 11 201 0.0 0.0 0.00 0.00 0.00 64 1014.8
20260508112542 11 218 0.0 0.0 0.00 0.00 0.00 64 1014.7
20260508112042 11 246 0.0 0.0 0.00 0.00 0.00 64 1014.7
20260508111545 11 225 0.0 0.0 0.00 0.00 0.00 64 1014.6
20260508111042 11 244 0.0 0.0 0.00 0.00 0.00 64 1014.5
20260508110542 11 239 0.0 0.0 0.00 0.00 0.00 63 1014.5
20260508110041 11 267 0.0 0.0 0.00 0.00 0.00 63 1014.6
20260508105541 11 267 0.0 0.0 0.00 0.00 0.00 63 1014.5
20260508105042 11 267 0.0 0.0 0.00 0.00 0.00 63 1014.6
20260508104545 11 263 0.0 0.0 0.00 0.00 0.00 63 1014.5
20260508104041 11 283 0.0 0.0 0.00 0.00 0.00 63 1014.5
20260508103541 11 289 0.0 0.0 0.00 0.00 0.00 63 1014.5
20260508103055 11 289 0.0 0.0 0.00 0.00 0.00 63 1014.6
20260508102540 11 287 0.0 0.0 0.00 0.00 0.00 63 1014.6
20260508102040 11 277 0.0 0.0 0.00 0.00 0.00 62 1014.6
20260508101550 11 277 0.0 0.0 0.00 0.00 0.00 63 1014.6
20260508101040 11 288 0.0 0.0 0.00 0.00 0.00 62 1014.6
20260508100538 11 259 0.0 0.0 0.00 0.00 0.00 61 1014.7
20260508100038 11 259 0.0 0.0 0.00 0.00 0.00 61 1014.6
20260508095541 11 259 0.0 0.0 0.00 0.00 0.00 61 1014.7
20260508095038 11 259 0.0 0.0 0.00 0.00 0.00 61 1014.7
20260508094537 11 259 0.0 0.0 0.00 0.00 0.00 60 1014.7
20260508094035 11 256 0.0 0.0 0.00 0.00 0.00 60 1014.6
20260508093538 11 256 0.0 0.0 0.00 0.00 0.00 59 1014.6
20260508093039 11 236 0.0 0.0 0.00 0.00 0.00 59 1014.5
20260508092535 12 236 0.0 0.0 0.00 0.00 0.00 59 1014.4
20260508092033 12 232 0.0 0.0 0.00 0.00 0.00 59 1014.4
20260508091535 12 232 0.0 0.0 0.00 0.00 0.00 58 1014.5
20260508091033 12 232 0.0 0.0 0.00 0.00 0.00 58 1014.5
20260508090533 12 250 0.0 0.0 0.00 0.00 0.00 58 1014.5
20260508090033 12 268 0.0 0.0 0.00 0.00 0.00 57 1014.5
20260508085532 12 246 0.0 0.0 0.00 0.00 0.00 57 1014.4
20260508085031 12 249 0.0 0.0 0.00 0.00 0.00 57 1014.4
20260508084531 12 230 0.0 0.0 0.00 0.00 0.00 57 1014.4
20260508084031 12 223 0.0 0.0 0.00 0.00 0.00 57 1014.4
20260508083531 12 250 0.0 0.0 0.00 0.00 0.00 57 1014.4
20260508083033 12 242 0.0 0.0 0.00 0.00 0.00 56 1014.3
20260508082530 12 244 0.0 0.0 0.00 0.00 0.00 56 1014.4
20260508082029 12 227 0.0 0.0 0.00 0.00 0.00 56 1014.4
20260508081529 12 262 0.0 0.0 0.00 0.00 0.00 56 1014.3
20260508081028 12 263 0.0 0.0 0.00 0.00 0.00 56 1014.2
20260508080528 12 263 0.0 0.0 0.00 0.00 0.00 57 1014.2
20260508080028 12 263 0.0 0.0 0.00 0.00 0.00 56 1014.3